Time,TemperatureF,DewpointF,PressureIn,WindDirection,WindDirectionDegrees,WindSpeedMPH,WindSpeedGustMPH,Humidity,HourlyPrecipIn,Conditions,Clouds,dailyrainin,SoftwareType,DateUTC
2013-03-15 00:00:00,18.7,16.7,28.98,SE,135,0.0,0.7,92,0.00,RA,,0.00,WeatherDisplay:10.37,2013-03-15 05:00:00,
2013-03-15 00:05:00,18.7,16.7,28.98,SE,135,1.1,1.1,92,0.00,RA,,0.00,WeatherDisplay:10.37,2013-03-15 05:05:00,
2013-03-15 00:10:00,17.6,15.4,28.98,NW,315,1.1,0.0,91,0.00,CLR,,0.00,WeatherDisplay:10.37,2013-03-15 05:10:00,
2013-03-15 00:15:00,17.8,15.9,28.98,NW,315,1.1,0.0,92,0.00,CLR,,0.00,WeatherDisplay:10.37,2013-03-15 05:15:00,
2013-03-15 00:20:00,17.8,15.9,28.98,SE,135,1.1,0.0,92,0.00,CLR,,0.00,WeatherDisplay:10.37,2013-03-15 05:20:00,
2013-03-15 00:25:00,17.8,15.9,28.97,SE,135,0.0,0.0,92,0.00,CLR,,0.00,WeatherDisplay:10.37,2013-03-15 05:25:00,
2013-03-15 00:30:00,18.1,16.2,28.97,SE,135,1.1,0.0,92,0.00,CLR,,0.00,WeatherDisplay:10.37,2013-03-15 05:30:00,
2013-03-15 00:35:00,18.7,16.7,28.97,NW,315,0.0,0.0,92,0.00,CLR,,0.00,WeatherDisplay:10.37,2013-03-15 05:35:00,
2013-03-15 00:40:00,18.7,16.7,28.96,South,180,1.1,0.0,92,0.00,CLR,,0.00,WeatherDisplay:10.37,2013-03-15 05:40:00,
2013-03-15 00:45:00,18.5,16.6,28.95,South,180,0.0,0.0,92,0.00,CLR,,0.00,WeatherDisplay:10.37,2013-03-15 05:45:00,
2013-03-15 00:50:00,18.3,16.4,28.96,NW,315,1.1,0.0,92,0.00,CLR,,0.00,WeatherDisplay:10.37,2013-03-15 05:50:00,
2013-03-15 00:55:00,18.3,16.4,28.96,NW,315,1.1,0.0,92,0.00,CLR,,0.00,WeatherDisplay:10.37,2013-03-15 05:55:00,
2013-03-15 01:00:00,18.3,16.4,28.96,NW,315,1.1,0.0,92,0.00,CLR,,0.00,WeatherDisplay:10.37,2013-03-15 06:00:00,
2013-03-15 01:05:00,18.3,16.4,28.97,NW,315,1.1,0.0,92,0.00,CLR,,0.00,WeatherDisplay:10.37,2013-03-15 06:05:00,
2013-03-15 01:10:00,18.3,16.4,28.97,NW,315,1.1,0.0,92,0.00,CLR,,0.00,WeatherDisplay:10.37,2013-03-15 06:10:00,
2013-03-15 01:15:00,18.3,16.4,28.96,NW,315,0.0,0.0,92,0.00,CLR,,0.00,WeatherDisplay:10.37,2013-03-15 06:15:00,
2013-03-15 01:20:00,18.5,16.6,28.96,NW,315,0.0,0.0,92,0.00,CLR,,0.00,WeatherDisplay:10.37,2013-03-15 06:20:00,
2013-03-15 01:25:00,18.5,16.6,28.96,NW,315,0.0,0.0,92,0.00,CLR,,0.00,WeatherDisplay:10.37,2013-03-15 06:25:00,
2013-03-15 01:30:00,18.5,16.6,28.95,SE,135,1.1,1.1,92,0.00,CLR,,0.00,WeatherDisplay:10.37,2013-03-15 06:30:00,
2013-03-15 01:35:00,18.9,17.2,28.95,South,180,2.3,2.3,93,0.00,CLR,,0.00,WeatherDisplay:10.37,2013-03-15 06:35:00,
2013-03-15 01:40:00,19.4,17.7,28.95,West,270,1.1,0.0,93,0.00,CLR,,0.00,WeatherDisplay:10.37,2013-03-15 06:40:00,
2013-03-15 01:45:00,19.4,17.7,28.95,West,270,0.0,0.0,93,0.00,CLR,,0.00,WeatherDisplay:10.37,2013-03-15 06:45:00,
2013-03-15 01:50:00,19.6,17.9,28.94,West,270,1.1,0.0,93,0.00,CLR,,0.00,WeatherDisplay:10.37,2013-03-15 06:50:00,
2013-03-15 01:55:00,19.8,18.1,28.94,South,180,1.1,0.0,93,0.00,CLR,,0.00,WeatherDisplay:10.37,2013-03-15 06:55:00,
2013-03-15 02:00:00,19.4,17.7,28.94,South,180,1.1,0.0,93,0.00,CLR,,0.00,WeatherDisplay:10.37,2013-03-15 07:00:00,
2013-03-15 02:05:00,19.4,17.7,28.94,South,180,0.0,0.0,93,0.00,CLR,,0.00,WeatherDisplay:10.37,2013-03-15 07:05:00,
2013-03-15 02:10:00,19.9,18.2,28.93,NW,315,1.1,0.0,93,0.00,CLR,,0.00,WeatherDisplay:10.37,2013-03-15 07:10:00,
2013-03-15 02:15:00,19.9,18.2,28.93,NW,315,1.1,0.0,93,0.00,CLR,,0.00,WeatherDisplay:10.37,2013-03-15 07:15:00,
2013-03-15 02:20:00,19.9,18.2,28.93,NW,315,1.1,0.0,93,0.00,CLR,,0.00,WeatherDisplay:10.37,2013-03-15 07:20:00,
2013-03-15 02:25:00,19.9,18.2,28.93,NW,315,0.0,0.0,93,0.00,CLR,,0.00,WeatherDisplay:10.37,2013-03-15 07:25:00,
2013-03-15 02:30:00,19.9,18.2,28.93,NW,315,1.1,0.0,93,0.00,CLR,,0.00,WeatherDisplay:10.37,2013-03-15 07:30:00,
2013-03-15 02:35:00,20.1,18.4,28.94,South,180,1.1,0.0,93,0.00,CLR,,0.00,WeatherDisplay:10.37,2013-03-15 07:35:00,
2013-03-15 02:40:00,20.3,18.6,28.93,South,180,1.1,0.0,93,0.00,CLR,,0.00,WeatherDisplay:10.37,2013-03-15 07:40:00,
2013-03-15 02:45:00,20.3,18.6,28.92,South,180,0.0,0.0,93,0.00,CLR,,0.00,WeatherDisplay:10.37,2013-03-15 07:45:00,
2013-03-15 02:50:00,20.3,18.6,28.92,South,180,0.0,0.0,93,0.00,CLR,,0.00,WeatherDisplay:10.37,2013-03-15 07:50:00,
2013-03-15 02:55:00,20.3,18.6,28.93,South,180,0.0,0.0,93,0.00,CLR,,0.00,WeatherDisplay:10.37,2013-03-15 07:55:00,
2013-03-15 03:00:00,20.8,19.1,28.92,North,0,1.1,0.0,93,0.00,CLR,,0.00,WeatherDisplay:10.37,2013-03-15 08:00:00,
2013-03-15 03:05:00,20.8,19.1,28.92,North,0,1.1,0.0,93,0.00,CLR,,0.00,WeatherDisplay:10.37,2013-03-15 08:05:00,
2013-03-15 03:10:00,20.8,19.1,28.92,North,0,0.0,0.0,93,0.00,CLR,,0.00,WeatherDisplay:10.37,2013-03-15 08:10:00,
2013-03-15 03:15:00,21.0,19.3,28.92,North,0,0.0,0.0,93,0.00,CLR,,0.00,WeatherDisplay:10.37,2013-03-15 08:15:00,
2013-03-15 03:20:00,21.0,19.3,28.92,North,0,0.0,0.0,93,0.00,CLR,,0.00,WeatherDisplay:10.37,2013-03-15 08:20:00,
2013-03-15 03:25:00,21.0,19.3,28.91,South,180,0.0,0.0,93,0.00,CLR,,0.00,WeatherDisplay:10.37,2013-03-15 08:25:00,
2013-03-15 03:30:00,21.0,19.3,28.91,South,180,1.1,1.1,93,0.00,CLR,,0.00,WeatherDisplay:10.37,2013-03-15 08:30:00,
2013-03-15 03:35:00,21.2,19.5,28.91,SE,135,1.1,1.1,93,0.00,CLR,,0.00,WeatherDisplay:10.37,2013-03-15 08:35:00,
2013-03-15 03:40:00,21.4,19.7,28.92,SE,135,1.1,0.0,93,0.00,CLR,,0.00,WeatherDisplay:10.37,2013-03-15 08:40:00,
2013-03-15 03:45:00,21.4,19.7,28.91,SE,135,0.0,0.0,93,0.00,CLR,,0.00,WeatherDisplay:10.37,2013-03-15 08:45:00,
2013-03-15 03:50:00,21.7,20.0,28.91,SW,225,1.1,0.0,93,0.00,CLR,,0.00,WeatherDisplay:10.37,2013-03-15 08:50:00,
2013-03-15 03:55:00,22.3,20.8,28.92,West,270,2.3,2.3,94,0.00,CLR,,0.00,WeatherDisplay:10.37,2013-03-15 08:55:00,
2013-03-15 04:00:00,22.3,20.8,28.91,SW,225,2.3,2.3,94,0.00,CLR,,0.00,WeatherDisplay:10.37,2013-03-15 09:00:00,
2013-03-15 04:05:00,22.3,20.8,28.91,SW,225,2.3,2.3,94,0.00,CLR,,0.00,WeatherDisplay:10.37,2013-03-15 09:05:00,
2013-03-15 04:10:00,22.1,20.4,28.92,SW,225,0.0,0.0,93,0.00,CLR,,0.00,WeatherDisplay:10.37,2013-03-15 09:10:00,
2013-03-15 04:15:00,22.1,20.4,28.91,SW,225,1.1,0.0,93,0.00,CLR,,0.00,WeatherDisplay:10.37,2013-03-15 09:15:00,
2013-03-15 04:20:00,22.3,20.6,28.91,SW,225,0.0,0.0,93,0.00,CLR,,0.00,WeatherDisplay:10.37,2013-03-15 09:20:00,
2013-03-15 04:25:00,22.1,20.4,28.90,SW,225,0.0,0.0,93,0.00,CLR,,0.00,WeatherDisplay:10.37,2013-03-15 09:25:00,
2013-03-15 04:30:00,22.1,20.4,28.91,SW,225,0.0,0.0,93,0.00,CLR,,0.00,WeatherDisplay:10.37,2013-03-15 09:30:00,
2013-03-15 04:35:00,22.1,20.4,28.90,SW,225,0.0,0.0,93,0.00,CLR,,0.00,WeatherDisplay:10.37,2013-03-15 09:35:00,
2013-03-15 04:40:00,22.3,20.6,28.90,West,270,1.1,0.0,93,0.00,CLR,,0.00,WeatherDisplay:10.37,2013-03-15 09:40:00,
2013-03-15 04:45:00,22.3,20.6,28.90,West,270,0.0,0.0,93,0.00,CLR,,0.00,WeatherDisplay:10.37,2013-03-15 09:45:00,
2013-03-15 04:50:00,22.3,20.6,28.90,West,270,0.0,0.0,93,0.00,CLR,,0.00,WeatherDisplay:10.37,2013-03-15 09:50:00,
2013-03-15 04:55:00,22.3,20.6,28.90,West,270,0.0,0.0,93,0.00,CLR,,0.00,WeatherDisplay:10.37,2013-03-15 09:55:00,
2013-03-15 05:00:00,21.9,20.2,28.90,South,180,1.6,1.6,93,0.00,CLR,,0.00,WeatherDisplay:10.37,2013-03-15 10:00:00,
2013-03-15 05:05:00,21.9,20.2,28.90,South,180,1.1,1.1,93,0.00,CLR,,0.00,WeatherDisplay:10.37,2013-03-15 10:05:00,
2013-03-15 05:10:00,22.8,21.4,28.90,SE,135,0.0,0.0,94,0.00,CLR,,0.00,WeatherDisplay:10.37,2013-03-15 10:10:00,
2013-03-15 05:15:00,23.0,21.5,28.90,West,270,1.1,0.0,94,0.00,CLR,,0.00,WeatherDisplay:10.37,2013-03-15 10:15:00,
2013-03-15 05:20:00,23.2,21.7,28.91,West,270,0.0,0.0,94,0.00,CLR,,0.00,WeatherDisplay:10.37,2013-03-15 10:20:00,
2013-03-15 05:25:00,23.4,21.9,28.90,SW,225,2.3,2.3,94,0.00,CLR,,0.00,WeatherDisplay:10.37,2013-03-15 10:25:00,
2013-03-15 05:30:00,23.7,22.2,28.90,SW,225,1.1,0.0,94,0.00,CLR,,0.00,WeatherDisplay:10.37,2013-03-15 10:30:00,
2013-03-15 05:35:00,23.9,22.4,28.90,SE,135,1.1,1.1,94,0.00,CLR,,0.00,WeatherDisplay:10.37,2013-03-15 10:35:00,
2013-03-15 05:40:00,23.7,22.2,28.90,SE,135,1.1,0.0,94,0.00,CLR,,0.00,WeatherDisplay:10.37,2013-03-15 10:40:00,
2013-03-15 05:45:00,23.7,22.2,28.91,SE,135,1.1,0.0,94,0.00,CLR,,0.00,WeatherDisplay:10.37,2013-03-15 10:45:00,
2013-03-15 05:50:00,23.9,22.4,28.91,South,180,1.1,1.1,94,0.00,CLR,,0.00,WeatherDisplay:10.37,2013-03-15 10:50:00,
2013-03-15 05:55:00,24.1,22.6,28.91,South,180,1.1,0.0,94,0.00,CLR,,0.00,WeatherDisplay:10.37,2013-03-15 10:55:00,
2013-03-15 06:00:00,24.1,22.6,28.91,South,180,1.1,0.0,94,0.00,CLR,,0.00,WeatherDisplay:10.37,2013-03-15 11:00:00,
2013-03-15 06:05:00,24.1,22.6,28.91,South,180,0.0,0.0,94,0.00,CLR,,0.00,WeatherDisplay:10.37,2013-03-15 11:05:00,
2013-03-15 06:34:00,24.1,22.6,28.91,North,0,0.0,0.0,94,0.00,CLR,,0.00,WeatherDisplay:10.37,2013-03-15 11:34:00,
2013-03-15 06:39:00,25.5,24.0,28.92,West,270,0.0,0.0,94,0.00,CLR,,0.00,WeatherDisplay:10.37,2013-03-15 11:39:00,
2013-03-15 06:44:00,25.3,23.9,28.92,South,180,1.1,0.0,94,0.00,CLR,,0.00,WeatherDisplay:10.37,2013-03-15 11:44:00,
2013-03-15 06:49:00,25.5,24.0,28.92,South,180,0.0,0.0,94,0.00,CLR,,0.00,WeatherDisplay:10.37,2013-03-15 11:49:00,
2013-03-15 06:54:00,26.1,24.6,28.92,NW,315,0.0,0.0,94,0.00,CLR,,0.00,WeatherDisplay:10.37,2013-03-15 11:54:00,
2013-03-15 06:59:00,26.1,24.6,28.92,NW,315,0.0,0.0,94,0.00,CLR,,0.00,WeatherDisplay:10.37,2013-03-15 11:59:00,
2013-03-15 07:04:00,26.1,24.6,28.91,NW,315,0.0,0.0,94,0.00,CLR,,0.00,WeatherDisplay:10.37,2013-03-15 12:04:00,
2013-03-15 07:09:00,26.1,24.6,28.91,South,180,0.0,0.0,94,0.00,CLR,,0.00,WeatherDisplay:10.37,2013-03-15 12:09:00,
2013-03-15 07:14:00,26.2,24.7,28.91,North,0,1.1,0.0,94,0.00,CLR,,0.00,WeatherDisplay:10.37,2013-03-15 12:14:00,
2013-03-15 07:19:00,26.4,24.9,28.91,North,0,1.1,0.0,94,0.00,CLR,,0.00,WeatherDisplay:10.37,2013-03-15 12:19:00,
2013-03-15 07:24:00,26.4,24.9,28.91,South,180,1.1,0.0,94,0.00,CLR,,0.00,WeatherDisplay:10.37,2013-03-15 12:24:00,
2013-03-15 07:29:00,26.4,24.9,28.91,South,180,1.1,0.0,94,0.00,CLR,,0.00,WeatherDisplay:10.37,2013-03-15 12:29:00,
2013-03-15 07:34:00,26.4,24.9,28.91,South,180,1.1,0.0,94,0.00,CLR,,0.00,WeatherDisplay:10.37,2013-03-15 12:34:00,
2013-03-15 07:39:00,26.6,25.1,28.91,West,270,0.0,0.0,94,0.00,CLR,,0.00,WeatherDisplay:10.37,2013-03-15 12:39:00,
2013-03-15 07:44:00,26.8,25.3,28.91,West,270,0.0,0.0,94,0.00,CLR,,0.00,WeatherDisplay:10.37,2013-03-15 12:44:00,
2013-03-15 07:49:00,27.0,25.5,28.91,NW,315,1.1,1.1,94,0.00,CLR,,0.00,WeatherDisplay:10.37,2013-03-15 12:49:00,
2013-03-15 07:54:00,27.1,25.6,28.91,NW,315,1.1,1.1,94,0.00,CLR,,0.00,WeatherDisplay:10.37,2013-03-15 12:54:00,
2013-03-15 07:59:00,27.3,25.8,28.91,NW,315,1.1,1.1,94,0.00,CLR,,0.00,WeatherDisplay:10.37,2013-03-15 12:59:00,
2013-03-15 08:04:00,27.5,26.0,28.90,NW,315,2.3,2.3,94,0.00,CLR,,0.00,WeatherDisplay:10.37,2013-03-15 13:04:00,
2013-03-15 08:09:00,27.9,26.4,28.91,North,0,2.3,2.3,94,0.00,CLR,,0.00,WeatherDisplay:10.37,2013-03-15 13:09:00,
2013-03-15 08:14:00,28.2,26.7,28.90,NNW,338,1.1,1.1,94,0.00,CLR,,0.00,WeatherDisplay:10.37,2013-03-15 13:14:00,
2013-03-15 08:19:00,28.4,26.9,28.90,NW,315,1.1,0.0,94,0.00,CLR,,0.00,WeatherDisplay:10.37,2013-03-15 13:19:00,
2013-03-15 08:24:00,28.8,27.3,28.90,North,0,1.1,1.1,94,0.00,CLR,,0.00,WeatherDisplay:10.37,2013-03-15 13:24:00,
2013-03-15 08:29:00,28.9,27.2,28.90,NW,315,1.1,1.1,93,0.00,CLR,,0.00,WeatherDisplay:10.37,2013-03-15 13:29:00,
2013-03-15 08:34:00,29.1,27.3,28.90,NW,315,1.1,1.1,93,0.00,CLR,,0.00,WeatherDisplay:10.37,2013-03-15 13:34:00,
2013-03-15 08:39:00,29.5,27.7,28.90,North,0,1.1,1.1,93,0.00,CLR,,0.00,WeatherDisplay:10.37,2013-03-15 13:39:00,
2013-03-15 08:44:00,30.2,28.4,28.90,North,0,2.2,2.2,93,0.00,CLR,,0.00,WeatherDisplay:10.37,2013-03-15 13:44:00,
2013-03-15 08:49:00,30.6,28.5,28.90,North,0,2.3,2.3,92,0.00,CLR,,0.00,WeatherDisplay:10.37,2013-03-15 13:49:00,
2013-03-15 08:54:00,30.7,28.4,28.90,North,0,1.1,1.1,91,0.00,CLR,,0.00,WeatherDisplay:10.37,2013-03-15 13:54:00,
2013-03-15 09:00:00,30.9,28.3,28.90,North,0,2.3,2.3,90,0.00,CLR,,0.00,WeatherDisplay:10.37,2013-03-15 14:00:00,
2013-03-15 09:05:00,30.9,28.3,28.90,North,0,1.1,1.1,90,0.00,CLR,,0.00,WeatherDisplay:10.37,2013-03-15 14:05:00,
2013-03-15 09:10:00,31.1,28.0,28.90,North,0,2.3,2.3,88,0.00,CLR,,0.00,WeatherDisplay:10.37,2013-03-15 14:10:00,
2013-03-15 09:15:00,31.3,28.1,28.90,North,0,2.3,2.3,88,0.00,CLR,,0.00,WeatherDisplay:10.37,2013-03-15 14:15:00,
2013-03-15 09:20:00,31.6,28.5,28.90,North,0,2.3,2.3,88,0.00,CLR,,0.00,WeatherDisplay:10.37,2013-03-15 14:20:00,
2013-03-15 09:25:00,31.8,28.4,28.90,North,0,2.3,2.3,87,0.00,CLR,,0.00,WeatherDisplay:10.37,2013-03-15 14:25:00,
2013-03-15 09:30:00,32.0,28.6,28.90,North,0,3.5,3.5,87,0.00,CLR,,0.00,WeatherDisplay:10.37,2013-03-15 14:30:00,
2013-03-15 09:35:00,32.2,28.7,28.90,NNW,338,2.3,2.3,87,0.00,CLR,,0.00,WeatherDisplay:10.37,2013-03-15 14:35:00,
2013-03-15 09:40:00,32.4,28.6,28.90,North,358,1.0,3.0,86,0.00,CLR,,0.00,WeatherDisplay:10.37,2013-03-15 14:40:00,
2013-03-15 09:45:00,32.4,28.6,28.90,North,0,3.5,3.5,86,0.00,CLR,,0.00,WeatherDisplay:10.37,2013-03-15 14:45:00,
2013-03-15 09:50:00,32.5,28.7,28.90,North,357,1.0,3.0,86,0.00,CLR,,0.00,WeatherDisplay:10.37,2013-03-15 14:50:00,
2013-03-15 09:55:00,32.5,28.8,28.90,North,351,1.0,3.0,86,0.00,CLR,,0.00,WeatherDisplay:10.37,2013-03-15 14:55:00,
2013-03-15 10:00:00,32.5,28.8,28.90,NNW,340,1.0,3.0,86,0.00,CLR,,0.00,WeatherDisplay:10.37,2013-03-15 15:00:00,
2013-03-15 10:05:00,32.7,29.0,28.90,North,352,1.0,2.0,86,0.00,CLR,,0.00,WeatherDisplay:10.37,2013-03-15 15:05:00,
2013-03-15 10:10:00,33.4,29.4,28.90,North,0,3.5,3.5,85,0.00,CLR,,0.00,WeatherDisplay:10.37,2013-03-15 15:10:00,
2013-03-15 10:15:00,33.6,29.3,28.90,North,358,2.0,4.0,84,0.00,CLR,,0.00,WeatherDisplay:10.37,2013-03-15 15:15:00,
2013-03-15 10:20:00,33.8,29.5,28.90,North,0,5.8,5.8,84,0.00,CLR,,0.00,WeatherDisplay:10.37,2013-03-15 15:20:00,
2013-03-15 10:25:00,34.0,29.9,28.90,North,349,2.0,4.0,85,0.00,CLR,,0.00,WeatherDisplay:10.37,2013-03-15 15:25:00,
2013-03-15 10:30:00,34.0,29.7,28.90,North,1,3.0,8.0,84,0.00,CLR,,0.00,WeatherDisplay:10.37,2013-03-15 15:30:00,
2013-03-15 10:35:00,33.8,29.2,28.90,NNE,24,6.0,10.0,83,0.00,CLR,,0.00,WeatherDisplay:10.37,2013-03-15 15:35:00,
2013-03-15 10:40:00,33.8,29.2,28.90,NNE,17,3.0,11.0,83,0.00,CLR,,0.00,WeatherDisplay:10.37,2013-03-15 15:40:00,
2013-03-15 10:45:00,33.6,29.0,28.91,North,7,5.0,13.0,83,0.00,CLR,,0.00,WeatherDisplay:10.37,2013-03-15 15:45:00,
2013-03-15 10:50:00,33.8,29.2,28.91,North,350,2.0,8.0,83,0.00,CLR,,0.00,WeatherDisplay:10.37,2013-03-15 15:50:00,
2013-03-15 10:55:00,34.3,29.4,28.91,North,359,3.0,7.0,82,0.00,CLR,,0.00,WeatherDisplay:10.37,2013-03-15 15:55:00,
2013-03-15 11:00:00,34.5,29.6,28.91,WNW,292,8.1,8.1,82,0.00,CLR,,0.00,WeatherDisplay:10.37,2013-03-15 16:00:00,
2013-03-15 11:05:00,34.5,29.6,28.90,NW,318,5.0,8.0,82,0.00,CLR,,0.00,WeatherDisplay:10.37,2013-03-15 16:05:00,
2013-03-15 11:10:00,35.1,30.1,28.90,NE,45,4.6,4.6,82,0.00,CLR,,0.00,WeatherDisplay:10.37,2013-03-15 16:10:00,
2013-03-15 11:15:00,35.7,30.4,28.90,North,9,3.0,8.0,81,0.00,CLR,,0.00,WeatherDisplay:10.37,2013-03-15 16:15:00,
2013-03-15 11:20:00,36.3,30.1,28.90,NNE,23,3.0,8.0,78,0.00,CLR,,0.00,WeatherDisplay:10.37,2013-03-15 16:20:00,
2013-03-15 11:25:00,36.5,30.3,28.90,NNE,20,2.0,8.0,78,0.00,CLR,,0.00,WeatherDisplay:10.37,2013-03-15 16:25:00,
2013-03-15 11:30:00,37.4,29.9,28.90,North,0,5.8,5.8,74,0.00,CLR,,0.00,WeatherDisplay:10.37,2013-03-15 16:30:00,
2013-03-15 11:35:00,38.1,30.5,28.90,North,7,2.0,6.0,74,0.00,CLR,,0.00,WeatherDisplay:10.37,2013-03-15 16:35:00,
2013-03-15 11:40:00,37.8,29.5,28.90,North,0,5.8,5.8,72,0.00,CLR,,0.00,WeatherDisplay:10.37,2013-03-15 16:40:00,
2013-03-15 11:45:00,37.3,29.1,28.90,NNE,13,3.0,8.0,72,0.00,RA,,0.01,WeatherDisplay:10.37,2013-03-15 16:45:00,
2013-03-15 11:50:00,36.6,28.8,28.90,North,10,6.0,10.0,73,0.00,RA,,0.02,WeatherDisplay:10.37,2013-03-15 16:50:00,
2013-03-15 11:55:00,36.5,28.7,28.90,North,4,3.0,9.0,73,0.00,RA,,0.04,WeatherDisplay:10.37,2013-03-15 16:55:00,
2013-03-15 12:00:00,36.6,28.8,28.90,North,6,3.0,8.0,73,0.00,RA,,0.05,WeatherDisplay:10.37,2013-03-15 17:00:00,
2013-03-15 12:05:00,36.5,28.7,28.90,NNE,33,5.0,8.0,73,0.00,RA,,0.05,WeatherDisplay:10.37,2013-03-15 17:05:00,
2013-03-15 12:10:00,36.5,28.7,28.90,NE,35,3.0,8.0,73,0.00,RA,,0.06,WeatherDisplay:10.37,2013-03-15 17:10:00,
2013-03-15 12:15:00,37.0,28.8,28.90,NNE,13,3.0,8.0,72,0.00,RA,,0.07,WeatherDisplay:10.37,2013-03-15 17:15:00,
2013-03-15 12:20:00,38.1,29.2,28.90,NNE,14,2.0,8.0,70,0.00,RA,,0.07,WeatherDisplay:10.37,2013-03-15 17:20:00,
2013-03-15 12:25:00,38.6,28.6,28.89,NNE,21,2.0,8.0,67,0.00,RA,,0.08,WeatherDisplay:10.37,2013-03-15 17:25:00,
2013-03-15 12:30:00,40.1,29.6,28.90,NNE,18,1.0,4.0,66,0.00,RA,,0.08,WeatherDisplay:10.37,2013-03-15 17:30:00,
2013-03-15 12:35:00,41.0,29.0,28.90,North,0,5.8,5.8,62,0.09,RA,,0.09,WeatherDisplay:10.37,2013-03-15 17:35:00,
2013-03-15 12:40:00,41.2,29.1,28.90,NW,315,3.5,3.5,62,0.09,RA,,0.09,WeatherDisplay:10.37,2013-03-15 17:40:00,
2013-03-15 12:45:00,41.4,28.5,28.90,North,0,3.5,3.5,60,0.08,,,0.09,WeatherDisplay:10.37,2013-03-15 17:45:00,
2013-03-15 12:50:00,40.5,27.7,28.90,NNE,23,2.0,8.0,60,0.00,CLR,,0.09,WeatherDisplay:10.37,2013-03-15 17:50:00,
2013-03-15 12:55:00,41.2,28.3,28.90,NNE,29,2.0,5.0,60,0.00,CLR,,0.09,WeatherDisplay:10.37,2013-03-15 17:55:00,
2013-03-15 13:00:00,41.5,28.3,28.89,NE,45,3.5,3.5,59,0.05,CLR,,0.09,WeatherDisplay:10.37,2013-03-15 18:00:00,
2013-03-15 13:05:00,41.7,28.4,28.89,NE,45,2.3,2.3,59,0.05,CLR,,0.09,WeatherDisplay:10.37,2013-03-15 18:05:00,
2013-03-15 13:10:00,41.0,27.3,28.88,North,0,5.8,5.8,58,0.04,CLR,,0.09,WeatherDisplay:10.37,2013-03-15 18:10:00,
2013-03-15 13:15:00,41.5,27.4,28.88,North,0,6.9,6.9,57,0.02,CLR,,0.09,WeatherDisplay:10.37,2013-03-15 18:15:00,
2013-03-15 13:20:00,42.8,27.7,28.88,East,90,4.6,4.6,55,0.02,CLR,,0.09,WeatherDisplay:10.37,2013-03-15 18:20:00,
2013-03-15 13:25:00,44.6,29.0,28.88,North,0,3.5,3.5,54,0.01,CLR,,0.09,WeatherDisplay:10.37,2013-03-15 18:25:00,
2013-03-15 13:30:00,45.1,27.6,28.88,North,0,3.5,3.5,50,0.01,CLR,,0.09,WeatherDisplay:10.37,2013-03-15 18:30:00,
2013-03-15 13:35:00,44.2,27.2,28.88,North,0,3.5,3.5,51,0.00,CLR,,0.09,WeatherDisplay:10.37,2013-03-15 18:35:00,
2013-03-15 13:40:00,43.3,26.9,28.87,East,90,4.6,4.6,52,0.00,CLR,,0.09,WeatherDisplay:10.37,2013-03-15 18:40:00,
2013-03-15 13:45:00,41.9,26.0,28.88,NE,45,2.0,6.0,53,0.00,CLR,,0.09,WeatherDisplay:10.37,2013-03-15 18:45:00,
2013-03-15 13:50:00,41.7,26.7,28.87,NE,34,1.0,6.0,55,0.00,CLR,,0.09,WeatherDisplay:10.37,2013-03-15 18:50:00,
2013-03-15 13:55:00,41.4,26.8,28.87,NE,45,5.8,5.8,56,0.00,CLR,,0.09,WeatherDisplay:10.37,2013-03-15 18:55:00,
2013-03-15 14:00:00,41.2,26.7,28.87,North,0,3.5,3.5,56,0.00,CLR,,0.09,WeatherDisplay:10.37,2013-03-15 19:00:00,
2013-03-15 14:05:00,41.2,26.2,28.87,NNE,26,2.0,4.0,55,0.00,CLR,,0.09,WeatherDisplay:10.37,2013-03-15 19:05:00,
2013-03-15 14:10:00,41.4,26.4,28.87,NE,45,2.3,2.3,55,0.00,CLR,,0.09,WeatherDisplay:10.37,2013-03-15 19:10:00,
2013-03-15 14:15:00,39.7,25.3,28.87,NE,45,8.1,8.1,56,0.00,CLR,,0.09,WeatherDisplay:10.37,2013-03-15 19:15:00,
2013-03-15 14:20:00,39.7,26.6,28.87,NE,45,4.6,4.6,59,0.00,CLR,,0.09,WeatherDisplay:10.37,2013-03-15 19:20:00,
2013-03-15 14:25:00,39.6,26.0,28.87,North,7,3.0,6.0,58,0.00,CLR,,0.09,WeatherDisplay:10.37,2013-03-15 19:25:00,
2013-03-15 14:30:00,38.5,25.4,28.86,NNE,19,3.0,11.0,59,0.00,CLR,,0.09,WeatherDisplay:10.37,2013-03-15 19:30:00,
2013-03-15 14:35:00,37.9,25.3,28.86,NNE,20,3.0,7.0,60,0.00,CLR,,0.09,WeatherDisplay:10.37,2013-03-15 19:35:00,
2013-03-15 14:40:00,37.2,25.8,28.86,North,0,8.1,8.1,63,0.00,CLR,,0.09,WeatherDisplay:10.37,2013-03-15 19:40:00,
2013-03-15 14:45:00,37.1,26.8,28.86,North,356,5.0,6.0,66,0.00,CLR,,0.09,WeatherDisplay:10.37,2013-03-15 19:45:00,
2013-03-15 14:50:00,36.7,26.4,28.87,North,0,5.8,5.8,66,0.00,CLR,,0.09,WeatherDisplay:10.37,2013-03-15 19:50:00,
2013-03-15 14:55:00,35.8,26.2,28.86,North,0,5.8,5.8,68,0.00,CLR,,0.09,WeatherDisplay:10.37,2013-03-15 19:55:00,
2013-03-15 15:00:00,35.4,26.3,28.86,North,0,5.8,5.8,69,0.00,CLR,,0.09,WeatherDisplay:10.37,2013-03-15 20:00:00,
2013-03-15 15:05:00,35.4,26.3,28.86,North,0,4.6,4.6,69,0.00,CLR,,0.09,WeatherDisplay:10.37,2013-03-15 20:05:00,
2013-03-15 15:10:00,35.8,25.9,28.86,North,0,5.8,5.8,67,0.00,CLR,,0.09,WeatherDisplay:10.37,2013-03-15 20:10:00,
2013-03-15 15:15:00,35.8,25.9,28.86,West,270,4.6,4.6,67,0.00,CLR,,0.09,WeatherDisplay:10.37,2013-03-15 20:15:00,
2013-03-15 15:20:00,35.8,25.9,28.86,North,0,5.8,5.8,67,0.00,CLR,,0.09,WeatherDisplay:10.37,2013-03-15 20:20:00,
2013-03-15 15:25:00,36.0,25.7,28.85,North,0,3.5,3.5,66,0.00,CLR,,0.09,WeatherDisplay:10.37,2013-03-15 20:25:00,
2013-03-15 15:30:00,36.5,25.8,28.85,NNW,346,3.0,5.0,65,0.00,CLR,,0.09,WeatherDisplay:10.37,2013-03-15 20:30:00,
2013-03-15 15:35:00,36.3,25.7,28.85,NNW,344,2.0,6.0,65,0.00,CLR,,0.09,WeatherDisplay:10.37,2013-03-15 20:35:00,
2013-03-15 15:40:00,35.8,25.2,28.85,NW,315,4.6,4.6,65,0.00,CLR,,0.09,WeatherDisplay:10.37,2013-03-15 20:40:00,
2013-03-15 15:45:00,35.4,24.8,28.84,NE,45,3.5,3.5,65,0.00,CLR,,0.09,WeatherDisplay:10.37,2013-03-15 20:45:00,
2013-03-15 15:50:00,35.4,24.1,28.84,North,0,4.6,4.6,63,0.00,CLR,,0.09,WeatherDisplay:10.37,2013-03-15 20:50:00,
2013-03-15 15:55:00,35.8,24.8,28.84,North,0,3.5,3.5,64,0.00,CLR,,0.09,WeatherDisplay:10.37,2013-03-15 20:55:00,
2013-03-15 16:00:00,36.1,25.1,28.84,East,90,1.1,0.0,64,0.00,CLR,,0.09,WeatherDisplay:10.37,2013-03-15 21:00:00,
2013-03-15 16:05:00,36.3,25.3,28.85,North,0,2.3,2.3,64,0.00,CLR,,0.09,WeatherDisplay:10.37,2013-03-15 21:05:00,
2013-03-15 16:10:00,36.3,25.2,28.85,North,0,2.0,3.0,64,0.00,CLR,,0.09,WeatherDisplay:10.37,2013-03-15 21:10:00,
2013-03-15 16:15:00,36.3,25.7,28.84,East,90,2.3,2.3,65,0.00,CLR,,0.09,WeatherDisplay:10.37,2013-03-15 21:15:00,
2013-03-15 16:20:00,36.0,26.1,28.84,NE,45,3.5,3.5,67,0.00,CLR,,0.09,WeatherDisplay:10.37,2013-03-15 21:20:00,
2013-03-15 16:25:00,36.0,26.4,28.84,East,88,1.0,3.0,68,0.00,CLR,,0.09,WeatherDisplay:10.37,2013-03-15 21:25:00,
2013-03-15 16:30:00,35.6,26.1,28.84,East,90,3.5,3.5,68,0.00,CLR,,0.09,WeatherDisplay:10.37,2013-03-15 21:30:00,
2013-03-15 16:35:00,35.2,26.1,28.84,ESE,112,2.3,2.3,69,0.00,CLR,,0.09,WeatherDisplay:10.37,2013-03-15 21:35:00,
2013-03-15 16:40:00,35.1,25.9,28.84,East,90,3.5,3.5,69,0.00,CLR,,0.09,WeatherDisplay:10.37,2013-03-15 21:40:00,
2013-03-15 16:45:00,35.1,26.3,28.84,NE,45,2.3,2.3,70,0.00,CLR,,0.09,WeatherDisplay:10.37,2013-03-15 21:45:00,
2013-03-15 16:50:00,35.2,26.4,28.84,East,90,1.1,1.1,70,0.00,CLR,,0.09,WeatherDisplay:10.37,2013-03-15 21:50:00,
2013-03-15 16:55:00,35.2,26.1,28.84,NE,45,1.1,0.0,69,0.00,CLR,,0.09,WeatherDisplay:10.37,2013-03-15 21:55:00,
2013-03-15 17:00:00,35.2,26.1,28.84,NE,45,3.5,3.5,69,0.00,CLR,,0.09,WeatherDisplay:10.37,2013-03-15 22:00:00,
2013-03-15 17:05:00,35.2,25.7,28.84,NE,45,2.3,2.3,68,0.00,CLR,,0.09,WeatherDisplay:10.37,2013-03-15 22:05:00,
2013-03-15 17:10:00,35.2,25.7,28.84,NE,45,2.3,2.3,68,0.00,CLR,,0.09,WeatherDisplay:10.37,2013-03-15 22:10:00,
2013-03-15 17:15:00,35.1,25.6,28.84,North,0,2.3,2.3,68,0.00,CLR,,0.09,WeatherDisplay:10.37,2013-03-15 22:15:00,
2013-03-15 17:20:00,35.1,25.6,28.83,NE,45,1.1,1.1,68,0.00,CLR,,0.09,WeatherDisplay:10.37,2013-03-15 22:20:00,
2013-03-15 17:25:00,34.9,25.0,28.83,NE,45,4.6,4.6,67,0.00,CLR,,0.09,WeatherDisplay:10.37,2013-03-15 22:25:00,
2013-03-15 17:30:00,34.5,24.7,28.82,NE,45,3.5,3.5,67,0.00,CLR,,0.09,WeatherDisplay:10.37,2013-03-15 22:30:00,
2013-03-15 17:35:00,34.2,24.7,28.83,East,90,1.1,1.1,68,0.00,CLR,,0.09,WeatherDisplay:10.37,2013-03-15 22:35:00,
2013-03-15 17:40:00,34.2,25.0,28.82,NE,45,1.1,0.0,69,0.00,CLR,,0.09,WeatherDisplay:10.37,2013-03-15 22:40:00,
2013-03-15 17:45:00,34.3,24.9,28.82,NE,45,2.3,0.0,68,0.00,CLR,,0.09,WeatherDisplay:10.37,2013-03-15 22:45:00,
2013-03-15 17:50:00,34.0,24.5,28.83,East,90,3.5,3.5,68,0.00,CLR,,0.09,WeatherDisplay:10.37,2013-03-15 22:50:00,
2013-03-15 17:55:00,33.8,24.7,28.82,East,90,2.3,0.0,69,0.00,CLR,,0.09,WeatherDisplay:10.37,2013-03-15 22:55:00,
2013-03-15 18:00:00,33.8,24.7,28.82,East,90,2.3,2.3,69,0.00,CLR,,0.09,WeatherDisplay:10.37,2013-03-15 23:00:00,
2013-03-15 18:05:00,33.8,24.7,28.82,NE,45,1.1,1.1,69,0.00,CLR,,0.09,WeatherDisplay:10.37,2013-03-15 23:05:00,
2013-03-15 18:10:00,33.8,24.7,28.82,East,90,2.3,2.3,69,0.00,CLR,,0.09,WeatherDisplay:10.37,2013-03-15 23:10:00,
2013-03-15 18:15:00,33.6,24.9,28.82,NE,45,1.1,0.0,70,0.00,CLR,,0.09,WeatherDisplay:10.37,2013-03-15 23:15:00,
2013-03-15 18:20:00,33.6,24.9,28.82,NE,45,1.1,1.1,70,0.00,CLR,,0.09,WeatherDisplay:10.37,2013-03-15 23:20:00,
2013-03-15 18:25:00,33.4,25.0,28.82,NE,45,1.6,1.6,71,0.00,CLR,,0.09,WeatherDisplay:10.37,2013-03-15 23:25:00,
2013-03-15 18:30:00,33.3,25.2,28.82,SE,135,3.5,3.5,72,0.00,CLR,,0.09,WeatherDisplay:10.37,2013-03-15 23:30:00,
2013-03-15 18:35:00,32.9,25.2,28.82,NE,45,2.3,2.3,73,0.00,CLR,,0.09,WeatherDisplay:10.37,2013-03-15 23:35:00,
2013-03-15 18:40:00,32.4,25.3,28.82,North,0,5.8,5.8,75,0.00,CLR,,0.09,WeatherDisplay:10.37,2013-03-15 23:40:00,
2013-03-15 18:45:00,32.2,25.5,28.82,North,0,1.1,1.1,76,0.00,CLR,,0.09,WeatherDisplay:10.37,2013-03-15 23:45:00,
2013-03-15 18:50:00,32.0,25.6,28.82,North,0,3.5,3.5,77,0.00,CLR,,0.09,WeatherDisplay:10.37,2013-03-15 23:50:00,
2013-03-15 18:55:00,31.6,25.6,28.83,North,0,3.5,3.5,78,0.00,CLR,,0.09,WeatherDisplay:10.37,2013-03-15 23:55:00,
2013-03-15 19:00:00,31.1,25.7,28.83,North,0,3.5,3.5,80,0.00,CLR,,0.09,WeatherDisplay:10.37,2013-03-16 00:00:00,
2013-03-15 19:05:00,31.1,25.7,28.82,North,0,3.5,3.5,80,0.00,CLR,,0.09,WeatherDisplay:10.37,2013-03-16 00:05:00,
2013-03-15 19:10:00,30.4,25.8,28.82,North,0,3.5,3.5,83,0.00,CLR,,0.09,WeatherDisplay:10.37,2013-03-16 00:10:00,
2013-03-15 19:15:00,29.8,25.6,28.82,North,0,4.6,4.6,84,0.00,CLR,,0.09,WeatherDisplay:10.37,2013-03-16 00:15:00,
2013-03-15 19:20:00,29.6,25.6,28.82,North,5,2.0,5.0,85,0.00,CLR,,0.09,WeatherDisplay:10.37,2013-03-16 00:20:00,
2013-03-15 19:25:00,29.3,25.6,28.82,North,0,3.5,3.5,86,0.00,CLR,,0.09,WeatherDisplay:10.37,2013-03-16 00:25:00,
2013-03-15 19:30:00,29.1,25.7,28.82,North,0,3.5,3.5,87,0.00,CLR,,0.09,WeatherDisplay:10.37,2013-03-16 00:30:00,
2013-03-15 19:35:00,28.9,26.1,28.82,NE,45,5.8,5.8,89,0.00,CLR,,0.09,WeatherDisplay:10.37,2013-03-16 00:35:00,
2013-03-15 19:40:00,28.8,26.2,28.83,North,0,5.8,5.8,90,0.00,CLR,,0.09,WeatherDisplay:10.37,2013-03-16 00:40:00,
2013-03-15 19:45:00,28.8,26.5,28.83,NE,45,4.6,4.6,91,0.00,CLR,,0.09,WeatherDisplay:10.37,2013-03-16 00:45:00,
2013-03-15 19:50:00,28.6,26.3,28.82,North,0,3.5,3.5,91,0.00,CLR,,0.09,WeatherDisplay:10.37,2013-03-16 00:50:00,
2013-03-15 19:55:00,28.6,26.6,28.82,NE,45,4.6,4.6,92,0.00,CLR,,0.09,WeatherDisplay:10.37,2013-03-16 00:55:00,
2013-03-15 20:00:00,28.4,26.4,28.82,North,0,6.9,6.9,92,0.00,CLR,,0.09,WeatherDisplay:10.37,2013-03-16 01:00:00,
2013-03-15 20:05:00,28.4,26.6,28.81,NNE,12,2.0,6.0,93,0.00,CLR,,0.09,WeatherDisplay:10.37,2013-03-16 01:05:00,
2013-03-15 20:10:00,28.4,26.6,28.82,NE,45,6.9,6.9,93,0.00,CLR,,0.09,WeatherDisplay:10.37,2013-03-16 01:10:00,
2013-03-15 20:15:00,28.2,26.5,28.82,North,0,5.8,5.8,93,0.00,CLR,,0.09,WeatherDisplay:10.37,2013-03-16 01:15:00,
2013-03-15 20:20:00,28.0,26.5,28.82,North,0,5.8,5.8,94,0.00,CLR,,0.09,WeatherDisplay:10.37,2013-03-16 01:20:00,
2013-03-15 20:25:00,28.0,26.5,28.82,North,0,4.6,4.6,94,0.00,CLR,,0.09,WeatherDisplay:10.37,2013-03-16 01:25:00,
2013-03-15 20:30:00,28.0,26.5,28.82,North,0,5.8,5.8,94,0.00,CLR,,0.09,WeatherDisplay:10.37,2013-03-16 01:30:00,
2013-03-15 20:35:00,28.0,26.5,28.82,North,9,3.0,6.0,94,0.00,CLR,,0.09,WeatherDisplay:10.37,2013-03-16 01:35:00,
2013-03-15 20:40:00,27.9,26.6,28.83,North,0,4.6,4.6,95,0.00,CLR,,0.09,WeatherDisplay:10.37,2013-03-16 01:40:00,
2013-03-15 20:45:00,27.9,26.6,28.83,North,0,4.6,4.6,95,0.00,CLR,,0.09,WeatherDisplay:10.37,2013-03-16 01:45:00,
2013-03-15 20:50:00,27.9,26.6,28.83,North,0,5.8,5.8,95,0.00,CLR,,0.09,WeatherDisplay:10.37,2013-03-16 01:50:00,
2013-03-15 20:55:00,27.9,26.6,28.83,North,0,4.6,4.6,95,0.00,CLR,,0.09,WeatherDisplay:10.37,2013-03-16 01:55:00,
2013-03-15 21:00:00,27.7,26.4,28.83,NNE,13,3.0,8.0,95,0.00,CLR,,0.09,WeatherDisplay:10.37,2013-03-16 02:00:00,
2013-03-15 21:05:00,27.7,26.4,28.83,North,0,3.8,3.8,95,0.00,CLR,,0.09,WeatherDisplay:10.37,2013-03-16 02:05:00,
2013-03-15 21:10:00,27.7,26.7,28.83,North,0,3.5,3.5,96,0.00,CLR,,0.09,WeatherDisplay:10.37,2013-03-16 02:10:00,
2013-03-15 21:15:00,27.5,26.5,28.83,North,0,5.8,5.8,96,0.00,CLR,,0.09,WeatherDisplay:10.37,2013-03-16 02:15:00,
2013-03-15 21:20:00,27.3,26.3,28.83,North,0,5.8,5.8,96,0.00,CLR,,0.09,WeatherDisplay:10.37,2013-03-16 02:20:00,
2013-03-15 21:25:00,27.0,26.0,28.84,NE,45,8.1,8.1,96,0.00,CLR,,0.09,WeatherDisplay:10.37,2013-03-16 02:25:00,
2013-03-15 21:30:00,26.8,25.8,28.83,NE,45,8.1,8.1,96,0.00,CLR,,0.09,WeatherDisplay:10.37,2013-03-16 02:30:00,
2013-03-15 21:35:00,26.7,25.7,28.83,North,9,2.0,9.0,96,0.00,CLR,,0.09,WeatherDisplay:10.37,2013-03-16 02:35:00,
2013-03-15 21:40:00,26.6,25.6,28.83,North,2,8.0,14.0,96,0.00,CLR,,0.09,WeatherDisplay:10.37,2013-03-16 02:40:00,
2013-03-15 21:45:00,26.4,25.4,28.83,North,4,5.0,10.0,96,0.00,CLR,,0.09,WeatherDisplay:10.37,2013-03-16 02:45:00,
2013-03-15 21:50:00,26.4,25.4,28.83,NW,315,5.8,5.8,96,0.00,CLR,,0.09,WeatherDisplay:10.37,2013-03-16 02:50:00,
2013-03-15 21:55:00,26.4,25.4,28.84,North,0,4.6,4.6,96,0.00,CLR,,0.09,WeatherDisplay:10.37,2013-03-16 02:55:00,
2013-03-15 22:00:00,26.2,25.3,28.84,North,0,8.1,8.1,96,0.00,CLR,,0.09,WeatherDisplay:10.37,2013-03-16 03:00:00,
2013-03-15 22:05:00,26.2,25.3,28.83,NW,315,5.8,5.8,96,0.00,CLR,,0.09,WeatherDisplay:10.37,2013-03-16 03:05:00,
2013-03-15 22:10:00,26.1,25.1,28.84,North,0,4.6,4.6,96,0.00,CLR,,0.09,WeatherDisplay:10.37,2013-03-16 03:10:00,
2013-03-15 22:15:00,25.9,24.9,28.84,North,0,5.8,5.8,96,0.00,CLR,,0.09,WeatherDisplay:10.37,2013-03-16 03:15:00,
2013-03-15 22:20:00,25.9,24.9,28.84,North,0,4.6,4.6,96,0.00,CLR,,0.09,WeatherDisplay:10.37,2013-03-16 03:20:00,
2013-03-15 22:25:00,25.7,24.7,28.84,North,0,5.8,5.8,96,0.00,CLR,,0.09,WeatherDisplay:10.37,2013-03-16 03:25:00,
2013-03-15 22:30:00,25.5,24.5,28.84,North,0,5.8,5.8,96,0.00,CLR,,0.09,WeatherDisplay:10.37,2013-03-16 03:30:00,
2013-03-15 22:35:00,25.5,24.5,28.84,North,0,5.8,5.8,96,0.00,CLR,,0.09,WeatherDisplay:10.37,2013-03-16 03:35:00,
2013-03-15 22:40:00,25.3,24.4,28.83,North,352,3.0,8.0,96,0.00,CLR,,0.09,WeatherDisplay:10.37,2013-03-16 03:40:00,
2013-03-15 22:45:00,25.3,24.4,28.84,North,0,8.1,8.1,96,0.00,CLR,,0.09,WeatherDisplay:10.37,2013-03-16 03:45:00,
2013-03-15 22:50:00,25.2,24.2,28.84,NW,315,9.2,9.2,96,0.00,CLR,,0.09,WeatherDisplay:10.37,2013-03-16 03:50:00,
2013-03-15 22:55:00,25.2,24.2,28.84,North,0,5.8,5.8,96,0.00,CLR,,0.09,WeatherDisplay:10.37,2013-03-16 03:55:00,
2013-03-15 23:00:00,25.0,24.0,28.84,North,355,5.0,9.0,96,0.00,CLR,,0.09,WeatherDisplay:10.37,2013-03-16 04:00:00,
2013-03-15 23:05:00,25.0,24.0,28.84,North,0,4.6,4.6,96,0.00,CLR,,0.09,WeatherDisplay:10.37,2013-03-16 04:05:00,
2013-03-15 23:10:00,25.0,24.0,28.84,North,0,4.6,4.6,96,0.00,CLR,,0.09,WeatherDisplay:10.37,2013-03-16 04:10:00,
2013-03-15 23:15:00,25.0,24.0,28.84,North,0,5.8,5.8,96,0.00,CLR,,0.09,WeatherDisplay:10.37,2013-03-16 04:15:00,
2013-03-15 23:20:00,25.0,24.0,28.85,North,0,4.6,4.6,96,0.00,CLR,,0.09,WeatherDisplay:10.37,2013-03-16 04:20:00,
2013-03-15 23:25:00,25.0,24.0,28.85,North,0,4.6,4.6,96,0.00,CLR,,0.09,WeatherDisplay:10.37,2013-03-16 04:25:00,
2013-03-15 23:30:00,25.0,24.0,28.84,North,0,4.6,4.6,96,0.00,CLR,,0.09,WeatherDisplay:10.37,2013-03-16 04:30:00,
2013-03-15 23:35:00,24.8,23.8,28.84,North,0,4.6,4.6,96,0.00,CLR,,0.09,WeatherDisplay:10.37,2013-03-16 04:35:00,
2013-03-15 23:40:00,24.8,23.8,28.84,North,0,4.6,4.6,96,0.00,CLR,,0.09,WeatherDisplay:10.37,2013-03-16 04:40:00,
2013-03-15 23:45:00,24.6,23.6,28.84,North,0,4.6,4.6,96,0.00,CLR,,0.09,WeatherDisplay:10.37,2013-03-16 04:45:00,
2013-03-15 23:50:00,24.6,23.6,28.84,North,0,5.8,5.8,96,0.00,CLR,,0.09,WeatherDisplay:10.37,2013-03-16 04:50:00,
2013-03-15 23:55:00,24.6,23.9,28.84,NE,45,3.5,3.5,97,0.00,CLR,,0.09,WeatherDisplay:10.37,2013-03-16 04:55:00,